Location: Guferjoch
(46.7462°N, 8.4506°E)
Time: 00:22:06
(UTC+00:00)

MOZ.5/SAFIR/RUBIN 5/SL-8 - Pass Details

Date: 14 July 2020
Orbit: 678 x 705 km, 98.1° (Epoch: 03 August)

Event Time Altitude Azimuth Distance (km) Brightness Sun altitude
Exits shadow 00:25:51 27° 136° (SE) 1,341 5.0 -20.5°
Maximum altitude 00:28:14 54° 71° (ENE) 860 4.4 -20.5°
Drops below altitude 10° 00:32:54 10° 355° (N) 2,186 7.4 -20.3°
Sets 00:35:12 0° 351° (N) 3,110 8.3 -20.2°
